Location: Newark
(0.5333°S, 166.9167°E)
Time: 17:48:10
(UTC+00:00)

NOAA 19 - Visible Passes

Search period start: 22 November 2019 00:00
Search period end: 02 December 2019 00:00
Orbit: 841 x 861 km, 99.2° (Epoch: 21 November)

Date Brightness Start Highest point End Pass type
(mag) Time Alt. Az. Time Alt. Az. Time Alt. Az.
22 Nov 8.3 17:01:06 10° ENE 17:03:53 14° ESE 17:06:42 10° SE visible
23 Nov 8.7 07:26:17 10° SW 07:28:16 12° WSW 07:30:16 10° W visible
24 Nov 8.3 07:13:13 10° SW 07:16:38 17° WSW 07:20:05 10° WNW visible
25 Nov 8.1 07:00:45 10° SSW 07:05:01 23° WSW 07:09:17 10° NW visible
25 Nov 5.4 18:03:47 10° NNE 18:09:18 81° ESE 18:14:49 10° S visible
26 Nov 5.9 17:52:14 10° NNE 17:57:39 59° ESE 18:03:04 10° S visible
27 Nov 6.6 17:40:49 10° NNE 17:46:00 43° ESE 17:51:11 10° S visible
28 Nov 7.2 17:29:33 10° NE 17:34:22 31° ESE 17:39:10 10° SSE visible
29 Nov 7.7 17:18:28 10° NE 17:22:43 23° ESE 17:26:57 10° SSE visible
30 Nov 8.2 17:07:42 10° ENE 17:11:05 17° ESE 17:14:28 10° SE visible
01 Dec 8.4 16:57:35 10° E 16:59:27 12° ESE 17:01:19 10° SE visible
